View from above orbital plane
|
View from above satellite
|
Ground track
|
The orbit data is extracted from the following two-line orbital elements,
1 20433U 90004B 21057.70180196 -.00000031 00000-0 -14972-5 0 9996
2 20433 74.0363 36.6132 0041426 198.2590 334.4822 14.36122277628781
Epoch (UTC): | 26 February 2021 16:50:35 |
Eccentricity: | 0.0041426 |
inclination: | 74.0363° |
perigee height: | 742 km |
apogee height: | 801 km |
right ascension of ascending node: | 36.6132° |
argument of perigee: | 198.2590° |
revolutions per day: | 14.36122277 |
mean anomaly at epoch: | 334.4822° |
orbit number at epoch: | 62878 |
The dashed part of the orbit path shows where the satellite is in the earth's shadow,
|
|